Location: Earls Croome
(52.0667°N, 2.2000°W)
Time: 11:10:01
(UTC+00:00)

USA 234 - Pass Details

Date: 17 November 2019
Orbit: 1099 x 1108 km, 123.0° (Epoch: 09 December)

Event Time Altitude Azimuth Distance (km) Brightness Sun altitude
Rises 03:56:48 0° 72° (ENE) 3,920 7.2 -32.6°
Reaches altitude 10° 03:59:18 10° 69° (ENE) 2,962 6.4 -32.3°
Maximum altitude 04:05:43 61° 352° (N) 1,240 3.4 -31.3°
Enters shadow 04:05:48 61° 348° (NNW) 1,240 3.4 -31.3°
